Theta_e
341 338 331 325 313 312 305 308 320 321 322 328 329 329 326 328 324 320 340 346 343 343 351 358 362 363 363 363 363 362 362 362 362 363 363 363 363 361 360 359 357 354 352 350 349 351 352 354 355
335 329 324 318 309 306 307 308 316 322 325 329 328 328 326 324 333 336 339 345 345 346 351 353 362 362 363 363 362 362 362 362 362 362 363 362 362 360 359 358 356 353 350 349 351 354 356 356 356
321 320 319 315 310 306 308 312 316 322 326 323 319 331 329 328 335 338 344 345 346 346 350 355 362 362 362 363 362 362 362 362 362 362 362 361 361 360 359 357 354 352 348 351 355 357 357 355 355
318 319 316 309 306 309 309 312 313 312 312 317 325 322 333 341 340 342 346 347 348 344 347 359 362 362 362 362 362 362 362 361 361 362 362 360 359 358 358 354 352 349 349 355 357 356 352 350 349
317 317 307 305 305 309 311 312 314 310 309 311 320 320 332 341 347 348 347 348 347 345 346 354 361 362 362 361 360 361 361 361 361 362 361 360 359 357 355 352 349 347 351 355 355 350 347 347 348
309 313 302 299 303 308 311 313 312 309 310 311 323 325 333 344 346 349 350 350 351 346 346 352 360 361 362 361 360 360 360 361 361 361 361 360 358 356 353 351 347 347 352 353 352 350 348 349 350
306 305 299 300 301 304 308 310 309 309 309 310 329 325 337 339 348 351 350 353 353 349 346 352 352 358 361 361 360 359 359 360 360 360 360 360 357 355 353 351 347 348 351 353 352 350 349 350 345
310 309 300 301 299 300 308 309 310 309 309 314 336 329 331 339 349 350 351 351 351 350 347 349 351 350 353 357 360 359 359 359 359 360 359 358 356 353 352 351 349 349 351 352 353 350 350 345 347
309 302 298 299 300 302 308 307 311 313 310 312 322 333 338 345 349 348 347 348 349 350 350 349 349 350 351 350 356 359 357 357 358 357 358 354 349 349 348 350 347 349 351 353 352 348 347 338 349
307 301 300 304 305 304 308 307 309 309 311 311 313 332 340 344 344 344 343 343 345 347 350 350 350 350 351 349 353 354 353 352 352 353 354 351 350 350 347 349 350 350 351 352 344 340 337 336 345
306 301 304 305 307 308 308 307 310 308 308 311 311 314 336 341 342 342 343 343 343 347 349 351 352 353 351 349 352 352 350 352 353 354 354 352 348 348 348 349 348 352 350 348 344 337 334 332 339
302 306 307 308 308 307 305 307 306 308 310 314 313 313 329 337 339 340 341 343 344 347 348 351 352 352 352 351 352 351 348 349 349 350 353 350 347 348 348 347 350 353 352 350 346 337 335 334 333
301 302 304 306 305 305 305 305 305 307 312 313 313 316 324 333 338 341 343 344 346 346 349 352 353 352 352 353 351 351 348 347 347 349 350 348 346 347 347 349 350 352 353 346 341 335 333 332 332
304 303 303 304 305 304 304 305 305 309 310 311 312 318 334 335 337 339 342 343 344 346 348 353 353 355 352 351 352 351 351 349 348 347 347 349 348 348 347 350 353 354 350 344 335 332 333 333 334
302 301 303 303 304 304 305 302 303 308 309 310 311 312 322 336 337 337 341 343 345 346 349 351 353 355 353 351 351 351 350 348 347 345 348 349 350 349 348 349 352 355 346 335 334 334 335 333 334
301 299 297 301 302 303 303 299 306 307 307 309 309 311 312 314 326 336 340 343 345 346 347 350 350 352 351 351 350 349 348 348 347 346 346 347 348 350 348 347 349 352 339 333 332 333 333 332 334
298 294 295 297 301 302 302 299 306 308 307 308 310 310 310 312 314 317 319 336 344 346 346 347 350 350 351 351 350 346 347 346 347 345 344 346 346 346 347 347 350 344 334 332 331 331 334 333 334
293 294 294 295 300 301 299 300 305 306 306 308 308 308 310 312 313 319 317 316 341 345 347 347 349 351 350 349 349 344 343 341 344 344 343 345 345 346 348 348 346 337 333 331 331 334 334 334 334
298 297 296 297 300 298 299 300 303 306 306 307 306 308 313 316 320 325 328 322 323 344 345 347 346 350 347 344 344 342 339 339 340 341 344 344 344 345 349 346 340 335 334 335 336 333 334 332 335
297 294 295 298 298 299 299 300 303 305 303 307 309 311 313 316 319 324 329 333 327 338 345 345 345 348 346 344 345 343 343 342 341 342 343 344 344 346 345 346 339 335 333 336 334 334 329 332 334
296 295 296 296 297 299 298 298 301 302 307 310 311 312 314 314 315 319 325 331 337 332 342 345 344 346 345 344 344 347 342 340 338 339 339 342 344 344 345 343 339 336 335 332 335 334 334 327 331
295 299 299 297 296 294 298 292 299 302 302 308 310 312 314 316 318 320 323 328 335 337 334 345 346 345 343 346 343 344 339 336 338 338 339 343 345 343 343 342 339 337 334 338 335 334 333 333 329
297 301 299 298 297 295 295 294 298 300 299 305 309 312 315 317 319 321 324 331 335 338 337 341 347 344 345 345 346 340 341 339 346 347 347 346 345 345 343 340 338 337 333 336 337 336 335 331 330
300 299 298 296 296 290 295 294 295 301 301 306 310 314 315 317 321 324 329 333 331 334 342 344 345 345 345 343 345 345 344 344 343 346 345 346 345 343 340 337 338 339 336 335 334 338 338 336 332
300 298 291 289 288 288 294 292 297 303 305 306 308 312 314 317 319 321 324 329 332 330 332 341 346 345 346 345 343 344 346 348 346 347 346 345 344 341 341 340 338 339 337 336 337 337 337 336 333
294 297 291 284 286 290 295 291 298 304 307 308 310 312 314 315 317 319 321 324 329 331 331 331 334 336 344 347 347 348 349 349 349 345 346 345 343 342 341 338 337 336 336 335 336 335 335 336 334
292 292 293 291 292 290 293 297 303 305 304 304 305 308 310 312 315 317 319 321 323 326 329 329 329 329 331 334 338 339 344 344 343 343 340 335 335 335 335 333 333 333 333 333 335 333 335 335 334
293 294 290 291 283 283 289 292 296 299 299 301 302 304 306 309 312 316 316 318 322 324 326 328 331 331 332 333 335 335 334 336 340 340 338 337 330 330 331 330 331 331 331 333 333 333 335 334 332
293 292 290 292 290 285 285 289 303 299 300 301 302 304 305 308 310 313 314 316 319 322 322 327 328 329 330 333 336 338 338 339 338 339 339 331 331 330 329 329 329 328 328 330 334 334 334 331 333
293 292 293 287 286 290 289 289 297 297 298 300 300 302 303 305 308 312 313 313 314 316 318 320 326 327 330 332 334 335 336 337 336 335 337 338 332 332 331 331 329 328 329 329 331 332 331 330 327
Wind_Speed
4 2 1 2 4 2 2 2 3 3 3 3 5 4 4 1 4 2 4 12 19 23 21 21 19 18 19 17 17 17 16 15 15 15 14 13 12 12 11 10 8 8 7 7 7 7 6 5 5
5 1 0 1 4 4 3 2 4 4 1 2 5 5 5 5 4 3 5 15 21 21 19 20 20 19 18 18 16 17 17 15 15 14 14 12 12 11 9 9 8 7 7 7 7 6 5 4 3
3 3 2 0 1 5 2 3 3 6 9 7 4 4 3 3 2 2 3 17 20 19 19 17 18 17 18 17 17 16 16 17 16 15 14 12 11 10 8 7 7 6 7 7 7 5 5 4 3
2 2 3 4 10 4 2 3 5 6 3 3 3 5 2 3 3 2 9 18 20 20 18 17 17 14 15 15 15 15 13 13 13 14 13 12 11 9 7 6 5 5 6 7 7 6 5 4 3
3 1 2 4 10 4 3 3 6 7 7 9 5 2 2 1 4 4 15 18 21 19 18 18 15 15 14 15 15 13 13 12 11 11 11 11 9 8 6 5 4 4 6 7 7 6 5 5 5
3 1 4 11 10 5 3 4 4 6 6 10 4 4 2 4 5 8 14 15 17 19 18 18 17 16 14 14 15 15 12 11 10 10 10 8 7 6 5 4 3 3 5 6 6 5 4 6 7
3 3 5 4 5 6 4 2 1 6 10 8 6 4 1 4 7 9 14 14 15 16 16 15 16 15 14 13 13 13 13 11 10 8 8 8 8 6 5 4 3 3 3 5 5 5 4 5 6
3 2 4 4 6 7 1 5 5 7 7 12 1 3 2 4 12 12 13 15 13 13 14 14 14 15 14 13 14 14 13 12 11 10 9 8 7 6 5 3 3 2 2 3 4 4 4 7 7
3 4 7 7 7 3 0 4 5 7 9 10 3 4 5 15 13 12 13 15 13 12 13 13 14 13 12 12 12 12 15 14 11 10 9 8 5 6 6 3 2 2 1 2 5 3 3 4 8
5 5 8 3 4 2 6 3 8 7 12 4 7 0 8 12 13 13 14 15 18 18 17 14 14 13 12 9 10 11 10 10 11 10 9 7 6 5 4 4 3 2 1 1 4 4 1 1 3
5 6 6 5 8 5 7 6 2 7 8 4 11 11 7 9 12 13 13 15 18 18 14 16 14 13 13 11 8 7 7 7 7 11 9 7 5 5 5 4 4 3 3 2 2 3 2 3 3
6 6 6 3 6 4 6 2 6 9 13 16 15 12 8 12 13 12 11 13 16 19 18 18 16 15 14 10 9 9 8 8 8 9 11 7 5 6 5 4 4 3 2 2 1 2 2 3 4
8 4 6 8 7 8 6 10 6 10 15 14 14 9 11 13 11 9 10 11 13 18 19 20 19 16 14 13 10 9 10 9 9 9 10 8 8 6 6 5 5 4 3 3 2 2 3 4 4
6 5 4 4 6 5 7 6 5 5 8 8 9 8 8 9 9 9 12 14 16 16 17 17 17 16 16 13 11 9 8 9 8 9 9 12 8 7 7 6 5 5 4 3 3 4 3 3 4
2 5 4 7 4 5 8 7 6 2 7 9 9 8 6 7 8 14 13 16 18 17 18 19 19 18 16 14 12 10 8 8 8 9 11 12 10 9 8 6 5 4 4 5 4 4 3 3 3
2 2 5 3 2 1 6 8 5 3 7 9 9 9 8 8 11 11 12 14 15 16 21 20 18 18 17 15 10 9 9 9 9 9 8 12 11 10 9 7 6 5 5 4 4 4 4 4 4
0 5 5 3 1 3 2 3 7 6 5 7 6 5 7 9 8 6 9 13 16 18 17 19 18 20 20 16 9 8 10 11 10 9 9 11 12 12 9 8 6 6 6 5 5 4 4 5 5
5 5 4 5 3 3 5 11 9 7 7 8 6 5 7 8 8 12 12 11 14 16 16 16 15 16 15 11 10 8 7 7 7 10 10 12 10 12 9 8 6 7 6 5 5 5 3 4 6
4 4 8 4 5 4 4 8 9 8 9 6 3 6 8 10 11 11 11 10 10 14 16 18 17 16 13 12 12 11 12 9 9 9 11 13 11 13 11 7 7 8 8 7 7 5 6 4 5
5 4 7 7 3 7 3 9 9 7 5 8 8 9 11 13 15 15 14 11 9 11 15 15 17 16 15 12 12 9 10 10 10 7 10 12 14 13 11 10 9 9 7 8 8 7 5 3 6
6 8 6 8 1 5 5 4 2 7 10 8 10 10 11 14 16 17 18 15 12 9 13 15 16 16 14 13 9 7 5 7 8 11 10 11 14 13 12 12 10 10 8 8 9 8 9 7 6
9 13 10 8 3 3 2 3 4 2 6 11 13 13 14 15 14 14 17 17 15 15 12 13 14 15 14 15 12 14 11 12 14 12 11 11 13 14 14 13 12 11 9 8 9 8 7 7 8
8 6 10 7 7 3 6 5 4 4 5 12 13 13 13 14 15 17 16 16 16 15 12 9 12 13 14 15 15 14 15 11 6 7 11 10 10 11 10 11 12 10 9 9 9 9 8 7 7
1 5 3 2 5 9 8 7 6 3 6 9 9 11 12 14 14 15 14 14 15 16 15 8 8 10 12 14 16 17 15 12 9 10 8 8 8 8 11 13 12 10 8 10 10 10 10 7 5
4 6 5 8 8 9 5 7 5 2 3 5 8 10 13 13 15 17 19 18 16 16 16 13 9 4 9 13 15 15 14 14 13 10 7 7 6 7 8 10 10 8 9 9 8 9 8 9 7
3 3 5 6 5 2 2 5 6 4 3 3 6 8 10 13 14 16 17 16 17 17 15 13 13 11 7 4 10 12 11 8 8 7 5 3 2 4 5 5 6 6 8 9 9 8 8 8 8
3 2 3 4 1 4 4 3 4 4 3 4 4 5 10 12 12 13 15 15 15 15 15 12 10 7 8 8 5 2 5 8 8 9 10 9 8 8 9 6 5 5 5 7 7 7 9 8 8
7 2 3 1 6 10 6 5 4 8 5 5 7 9 11 11 12 10 12 13 11 11 11 13 12 10 8 6 4 2 3 5 9 11 13 14 10 13 9 5 6 7 3 7 9 7 9 8 8
4 1 3 1 3 4 5 4 3 3 4 7 6 8 10 10 10 11 13 12 11 10 11 11 11 10 10 9 7 5 3 7 10 11 12 11 12 14 16 13 10 7 3 9 12 11 11 11 9
6 7 7 5 6 2 3 2 4 5 6 7 9 13 13 11 11 11 10 13 13 12 13 12 9 9 10 10 10 7 4 4 6 8 8 7 6 9 11 15 14 12 11 14 16 15 12 13 10
Wind_Direction
137 116 308 257 256 286 16 46 303 221 197 203 172 203 234 296 187 17 49 162 149 156 160 164 168 162 155 152 145 138 137 137 134 133 136 136 132 128 124 121 118 111 104 94 90 92 91 96 100
130 124 176 60 278 282 51 304 248 260 21 234 228 210 217 238 280 126 166 174 161 155 160 164 168 163 158 152 149 143 142 143 141 139 139 137 133 131 131 130 124 113 97 87 79 77 82 84 96
113 10 272 29 213 256 95 48 325 287 267 292 288 240 224 184 115 82 294 165 161 160 158 162 165 163 159 155 151 149 150 149 147 144 141 139 136 137 140 135 123 107 93 82 77 63 58 61 72
132 140 111 234 239 206 235 6 327 325 357 22 281 247 161 20 320 7 150 160 160 159 159 156 157 162 159 154 152 149 150 150 149 146 145 144 146 145 143 137 120 104 92 78 67 57 40 31 28
47 122 176 231 244 256 232 278 300 319 313 338 307 273 216 63 23 130 155 160 160 160 160 160 158 157 163 156 152 152 150 151 150 148 147 150 152 150 148 138 119 96 80 71 64 49 27 354 340
126 277 213 234 236 263 275 254 282 304 311 335 10 265 237 130 154 148 144 156 160 158 165 160 160 157 164 162 157 153 153 152 154 154 153 155 157 158 158 147 119 84 70 66 62 54 10 349 334
179 182 231 243 263 273 268 328 291 323 309 358 328 280 44 189 135 149 140 144 160 160 166 166 169 166 162 165 160 156 153 154 158 161 160 160 166 171 171 163 137 94 63 53 51 46 358 5 351
126 204 176 221 244 269 101 336 335 315 319 325 253 299 5 133 143 145 139 138 153 164 167 172 173 177 178 178 169 163 160 162 162 167 174 173 171 179 181 177 150 131 88 57 48 25 354 24 23
159 207 219 217 194 220 259 2 331 296 287 315 300 292 6 134 141 146 149 144 160 171 176 177 177 176 184 185 180 171 170 170 171 182 183 180 194 185 185 122 164 173 159 58 56 39 331 54 65
202 225 218 218 205 235 314 328 318 309 308 278 301 87 118 145 158 163 173 173 172 180 179 180 179 185 181 186 187 191 187 188 187 191 196 200 190 198 210 186 191 208 256 52 76 89 103 205 91
175 240 192 209 226 251 288 287 253 292 294 255 313 322 174 172 186 190 193 194 186 176 181 186 182 182 187 192 188 191 194 193 196 190 194 200 192 196 206 193 187 192 183 216 146 135 102 107 118
211 223 204 244 222 217 266 280 271 260 266 289 299 284 220 200 205 205 200 193 184 184 187 186 191 183 190 194 199 192 196 196 198 199 190 192 200 196 203 208 193 209 197 204 197 156 105 148 133
227 229 200 241 245 252 277 256 263 255 275 304 301 274 246 217 209 208 204 194 196 195 190 191 187 189 188 199 203 205 205 203 201 200 198 195 201 203 199 200 207 210 205 225 187 165 147 146 153
199 207 255 246 249 220 222 246 186 258 314 318 326 320 278 250 226 208 204 196 203 204 201 196 195 194 187 200 207 215 213 208 211 207 208 204 202 200 206 207 219 216 208 218 181 156 170 167 154
145 262 266 212 221 227 203 237 225 300 322 314 320 322 286 260 238 229 221 209 205 202 199 200 197 198 192 198 196 214 222 218 220 219 212 211 209 205 212 216 216 211 189 178 165 161 162 182 165
203 229 250 122 172 3 215 240 254 109 335 313 310 297 296 272 261 246 234 224 214 210 203 200 198 189 194 193 186 200 216 223 224 224 219 217 215 215 210 213 223 195 178 183 187 169 165 175 170
74 242 224 274 347 131 251 257 265 332 318 298 292 307 320 319 319 329 288 250 226 213 205 206 204 195 195 193 171 187 207 223 221 217 225 219 219 221 222 219 213 186 176 183 188 175 182 160 168
191 212 215 235 131 292 283 264 267 292 300 292 335 337 335 351 347 344 331 292 240 217 208 205 203 201 194 182 172 193 214 224 211 222 219 219 219 220 221 226 206 181 181 179 184 178 163 187 174
198 242 264 252 245 267 263 265 287 288 283 310 354 11 351 342 334 336 345 344 272 225 209 203 196 193 180 187 183 203 211 211 216 217 219 222 219 217 212 221 198 189 192 189 181 165 167 162 163
195 218 259 298 214 215 265 282 294 297 59 56 25 5 350 341 336 340 348 351 340 259 222 211 208 197 193 191 199 203 207 217 221 206 218 210 216 218 211 209 200 199 184 180 184 186 165 173 180
211 225 234 258 119 236 258 225 314 100 98 63 35 5 353 348 336 332 337 345 338 309 249 224 211 204 202 199 195 189 170 232 213 218 212 209 212 211 206 203 206 193 199 190 190 190 190 185 187
230 215 236 248 234 250 261 227 279 107 118 41 17 7 355 350 343 336 335 340 343 333 289 243 223 211 203 199 196 198 202 206 216 207 208 200 205 203 201 197 200 198 194 195 193 189 198 194 188
226 192 208 210 221 219 188 242 174 357 126 13 7 6 2 359 355 348 347 346 355 347 319 261 230 215 206 195 205 200 211 223 213 209 203 197 200 215 206 199 198 194 196 197 187 186 202 199 204
98 164 118 134 184 239 232 240 171 1 345 0 22 23 19 16 13 12 7 7 10 10 359 316 240 223 210 203 204 208 216 215 210 200 192 185 197 185 202 204 197 195 193 196 197 194 200 205 212
203 193 217 215 208 251 128 218 34 30 37 20 10 17 19 22 25 18 16 14 16 22 18 14 3 268 225 211 208 214 215 214 224 200 183 174 206 225 213 207 198 184 201 211 201 189 192 200 207
70 268 244 255 230 162 169 203 108 112 113 34 36 27 18 18 16 20 22 16 19 24 35 28 27 28 20 252 222 220 221 214 211 194 166 162 188 340 326 246 248 210 221 224 209 190 195 197 205
93 95 358 105 38 248 141 111 179 186 125 88 48 21 15 6 7 11 17 16 20 21 27 27 40 35 29 23 35 58 189 191 188 148 133 118 106 77 48 24 326 299 280 251 222 216 199 197 203
64 45 204 104 221 241 186 193 139 166 102 58 44 18 4 356 354 5 11 8 3 10 12 16 24 31 31 39 45 112 159 179 182 165 157 149 153 129 114 84 43 326 305 282 243 222 216 200 207
335 239 79 323 248 271 252 144 72 88 356 335 349 346 342 338 335 337 340 345 346 1 11 9 7 13 19 13 1 329 255 202 185 197 185 178 171 164 151 166 176 192 218 270 261 244 225 199 196
248 260 233 230 184 212 317 178 69 42 28 3 12 9 357 345 323 324 333 326 320 322 337 337 341 357 7 5 5 359 290 260 216 212 213 234 212 171 162 175 189 190 189 220 235 230 221 222 190